GRIFEX (40379 NORAD) Tracking and Keplerian Element Data

This shows tracking and keplerian element data for the satellite.

Feedback or suggestion? Click here.




ElementValue
Catalog40379
NameGRIFEX
Epoch Orbit43143
Epoch Day324.64257291
Epoch Year2022
RAAN209.0819
Inclination99.088
Eccentricity0.0105296
Argument of Perigee262.148
Mean Anonmoly96.7791
Mean Motion15.27097577
Decay Rate0.00013817
L11 40379U 15003D 22324.64257291 .00013817 00000+0 44464-3 0 9995
L22 40379 99.0880 209.0819 0105296 262.1480 96.7791 15.27097577431438



Live tracking and technical data element details for GRIFEX (NORAD 40379). GRIFEX can be tracked NOW for your location showing map with azimuth and elevation plus other details from your city location.







IsCatalogInMostPopularTable: catalog: 40379, numindb: 364
Update: records affected: 1



GetName: 40379 GRIFEX

Hit Count: updated at: Fri, 02 Dec 2022 13:33:14 GMT